Showing default

BSAT-3A, 32019

Orbit data source: Space-Track

BSAT-3A, 32019 is a payload satellite owned by BSAT (JP) in GEO that was launched on Tue, 14 Aug 2007 UTC via an ARIANE 5ECA launch vehicle from the French Guiana (FRGUI). Payload-class satellites include a variety of spacecraft equipped with specific instruments for various scientific and technological missions. These include communications satellites like Starlink; space stations such as the ISS; scientific satellites like the Hubble; Earth observation satellites from companies like Planet Labs, Umbra, and HawkEye 360; GPS; miniature CubeSats for education and research; and military/defense satellites.

Loading next visibility...
Identifier
32019, 2007-036B
Orbit
GEO
Last TLE update
15 hours ago
Origin
Manufacturer
LMCSS
Mission
Non-operational Commercial Communications
Bus & Motor
A2100A, LEROS?
Mass
1,967 kg wet, 930 kg dry
Launch date (UTC)
2007-08-14 (18 years ago)
Launch vehicle
ARIANE 5ECA
Launch site
French Guiana (FRGUI)
Object type
Payload
Rocket body
Debris
Shape & HBR
Box + 2 Pan, 14.7 m
Radar Cross Section
15.563 m², Large (>1 m²)

Expand to show TLE details & history

TLE from 15 hours ago
0 BSAT-3A
1 32019U 07036B   25186.81833745 -.00000008  00000-0  00000-0 0  9991
2 32019   0.7575  99.2478 0004114  62.9577 255.2068  0.99142770 47037
Epoch: 2025-07-05T19:38Z
TLE epoch observation values (Epoch: 2025-07-05T19:38:24.355Z)
Latitude
-0.49051°
Longitude
-161.28°
Altitude
36,110.054 km
Speed
3.063 km/s
True Right ascension
03h 49m 29s
True Declination
0° 29' 24"
Sunlit
Object was in daylight at epoch
Visualization orbit readout
Latitude
-0.08366°
Longitude
65.13194°
Altitude
36,114.701 km
Speed
3.062 km/s
Apparent Right ascension
18h 31m 13s
Apparent Declination
-5° 52' 30"
Sunlit
Object is in daylight
Visualization observer readout
Local Sidereal Time
22:49:45
Azimuth
248.618° W
Elevation
15.138°
Doppler factor
1
Orbital elements
Apogee altitude
36,124.64 km
Perigee altitude
36,089.683 km
Semi-major axis
42,485.298 km
Eccentricity
0.00041
Inclination
0.7575°
RAAN
99.2478°
Arg. of periapsis
62.9577°
True anomaly
Unknown
Mean anomaly
255.2068°
Eccentric anomaly
Unknown
Mean motion
0.24785 °/min
Orbital period
1,452.5 mins
BSTAR
0
Loading historical data...
32019 neighbors
Loading maneuver chart data...
Loading SW <> Apogee altitude chart data...
Loading historical data...
Loading historical data...
Loading historical data...
Loading historical data...
Loading historical data...
Loading historical data...
Loading historical data...
Other satellites on launch #36 in the year 2007 (2007-08-14 UTC)

BSAT-3A Visibility forecast

Observer location: undefined°, undefined°

Span
Click to sort rows by Start time (UTC) header in descending order
Start Az.
Max El. time (UTC)
Max El. Az.
Max El.
End time (UTC)
End Az.
1440 mins2025-07-06 10:51:31.954Z248.604° W2025-07-06 10:51:31.954Z248.604° W14.629°2025-07-07 10:51:31.954Z251.669° W
|